Terug naar catalogus

COSMOS 708

ActiefMilitairLEO
NORAD 7663·PAYLOAD·🇷🇺 Russia

Gelanceerd Feb 12, 1975 vanaf Plesetsk Cosmodrome

Loading…

Volgende Passages (komende 24 uur)

TLE

VersSource: Space-Track

Epoch: Sep 14, 2026, 13:45 UTC

1 07663U 75012A   26257.57331934 -.00000035  00000-0  31454-4 0  9994
2 07663  69.2313 288.0113 0023739  19.4960 147.7168 12.68302520388860

Volg COSMOS 708 in realtime met AllMySat

Download on the App Store